| time (UTC) | temp C | wind direction | speed KPH | gust KPH | rain 1hr cm | rain 24hr cm | rain mn cm | humidity % | barometer mb |
| 20260510190554 | 21 | 286 | 6.4 | 8.0 | 0.00 | 0.00 | 0.00 | 52 | 1016.6 |
| 20260510190052 | 21 | 324 | 3.2 | 4.8 | 0.00 | 0.00 | 0.00 | 52 | 1016.7 |
| 20260510185548 | 21 | 326 | 4.8 | 4.8 | 0.00 | 0.00 | 0.00 | 52 | 1016.5 |
| 20260510185045 | 21 | 279 | 6.4 | 8.0 | 0.00 | 0.00 | 0.00 | 52 | 1016.6 |
| 20260510184543 | 21 | 294 | 8.0 | 9.7 | 0.00 | 0.00 | 0.00 | 50 | 1016.6 |
| 20260510184038 | 21 | 279 | 4.8 | 4.8 | 0.00 | 0.00 | 0.00 | 52 | 1016.6 |
| 20260510183533 | 21 | 295 | 4.8 | 4.8 | 0.00 | 0.00 | 0.00 | 52 | 1016.4 |
| 20260510183028 | 21 | 292 | 1.6 | 1.6 | 0.00 | 0.00 | 0.00 | 50 | 1016.4 |
| 20260510182526 | 22 | 264 | 11.3 | 14.5 | 0.00 | 0.00 | 0.00 | 48 | 1016.6 |
| 20260510182021 | 22 | 274 | 4.8 | 4.8 | 0.00 | 0.00 | 0.00 | 49 | 1016.2 |
| 20260510181519 | 22 | 314 | 6.4 | 8.0 | 0.00 | 0.00 | 0.00 | 50 | 1016.2 |
| 20260510181014 | 22 | 307 | 3.2 | 4.8 | 0.00 | 0.00 | 0.00 | 49 | 1016.5 |
| 20260510180512 | 22 | 276 | 4.8 | 4.8 | 0.00 | 0.00 | 0.00 | 49 | 1016.4 |
| 20260510180010 | 21 | 296 | 4.8 | 4.8 | 0.00 | 0.00 | 0.00 | 47 | 1016.5 |
| 20260510175504 | 22 | 293 | 14.5 | 16.1 | 0.00 | 0.00 | 0.00 | 47 | 1016.7 |
| 20260510175001 | 22 | 281 | 8.0 | 9.7 | 0.00 | 0.00 | 0.00 | 48 | 1016.7 |
| 20260510174459 | 22 | 345 | 4.8 | 8.0 | 0.00 | 0.00 | 0.00 | 49 | 1016.5 |
| 20260510173955 | 22 | 280 | 1.6 | 3.2 | 0.00 | 0.00 | 0.00 | 48 | 1016.4 |
| 20260510173451 | 22 | 282 | 6.4 | 8.0 | 0.00 | 0.00 | 0.00 | 49 | 1016.5 |
| 20260510172948 | 21 | 292 | 3.2 | 3.2 | 0.00 | 0.00 | 0.00 | 48 | 1016.5 |
| 20260510172443 | 22 | 285 | 8.0 | 9.7 | 0.00 | 0.00 | 0.00 | 48 | 1016.7 |
| 20260510171940 | 22 | 286 | 4.8 | 8.0 | 0.00 | 0.00 | 0.00 | 49 | 1016.8 |
| 20260510171437 | 21 | 287 | 4.8 | 4.8 | 0.00 | 0.00 | 0.00 | 51 | 1016.9 |
| 20260510170934 | 21 | 257 | 6.4 | 8.0 | 0.00 | 0.00 | 0.00 | 49 | 1016.8 |
| 20260510170430 | 21 | 286 | 8.0 | 11.3 | 0.00 | 0.00 | 0.00 | 49 | 1017.0 |
| 20260510165926 | 21 | 309 | 3.2 | 3.2 | 0.00 | 0.00 | 0.00 | 53 | 1017.0 |
| 20260510165422 | 21 | 316 | 3.2 | 4.8 | 0.00 | 0.00 | 0.00 | 52 | 1017.2 |
| 20260510164919 | 21 | 304 | 3.2 | 3.2 | 0.00 | 0.00 | 0.00 | 50 | 1017.1 |
| 20260510164416 | 21 | 303 | 6.4 | 8.0 | 0.00 | 0.00 | 0.00 | 49 | 1017.4 |
| 20260510163911 | 21 | 279 | 4.8 | 4.8 | 0.00 | 0.00 | 0.00 | 53 | 1017.5 |
| 20260510163408 | 21 | 246 | 8.0 | 9.7 | 0.00 | 0.00 | 0.00 | 52 | 1017.1 |
| 20260510162907 | 21 | 275 | 12.9 | 17.7 | 0.00 | 0.00 | 0.00 | 53 | 1017.1 |
| 20260510162405 | 20 | 322 | 4.8 | 4.8 | 0.00 | 0.00 | 0.00 | 56 | 1017.5 |
| 20260510161901 | 20 | 299 | 11.3 | 12.9 | 0.00 | 0.00 | 0.00 | 55 | 1017.2 |
| 20260510161356 | 21 | 265 | 6.4 | 8.0 | 0.00 | 0.00 | 0.00 | 54 | 1017.2 |
| 20260510160853 | 21 | 283 | 4.8 | 4.8 | 0.00 | 0.00 | 0.00 | 56 | 1017.2 |
| 20260510160351 | 20 | 318 | 4.8 | 8.0 | 0.00 | 0.00 | 0.00 | 55 | 1017.2 |
| 20260510155844 | 20 | 313 | 4.8 | 4.8 | 0.00 | 0.00 | 0.00 | 57 | 1017.4 |
| 20260510155341 | 20 | 292 | 8.0 | 9.7 | 0.00 | 0.00 | 0.00 | 56 | 1017.5 |
| 20260510154837 | 20 | 306 | 8.0 | 9.7 | 0.00 | 0.00 | 0.00 | 56 | 1017.5 |
| 20260510154333 | 20 | 308 | 6.4 | 8.0 | 0.00 | 0.00 | 0.00 | 57 | 1017.4 |
| 20260510153828 | 20 | 288 | 11.3 | 12.9 | 0.00 | 0.00 | 0.00 | 59 | 1017.4 |
| 20260510153324 | 20 | 305 | 3.2 | 4.8 | 0.00 | 0.00 | 0.00 | 60 | 1017.2 |
| 20260510152821 | 20 | 283 | 6.4 | 8.0 | 0.00 | 0.00 | 0.00 | 60 | 1017.2 |
| 20260510152318 | 20 | 339 | 4.8 | 4.8 | 0.00 | 0.00 | 0.00 | 60 | 1017.4 |
| 20260510151814 | 20 | 293 | 3.2 | 4.8 | 0.00 | 0.00 | 0.00 | 61 | 1017.4 |
| 20260510151312 | 20 | 313 | 3.2 | 3.2 | 0.00 | 0.00 | 0.00 | 59 | 1017.2 |
| 20260510150808 | 20 | 290 | 8.0 | 11.3 | 0.00 | 0.00 | 0.00 | 60 | 1017.6 |
| 20260510150303 | 19 | 284 | 8.0 | 11.3 | 0.00 | 0.00 | 0.00 | 61 | 1017.4 |
| 20260510145800 | 18 | 277 | 3.2 | 4.8 | 0.00 | 0.00 | 0.00 | 62 | 1017.2 |
| 20260510145257 | 18 | 284 | 4.8 | 4.8 | 0.00 | 0.00 | 0.00 | 61 | 1017.4 |
| 20260510144753 | 18 | 295 | 8.0 | 9.7 | 0.00 | 0.00 | 0.00 | 62 | 1017.2 |
| 20260510144250 | 18 | 306 | 4.8 | 4.8 | 0.00 | 0.00 | 0.00 | 63 | 1017.4 |
| 20260510143749 | 18 | 315 | 9.7 | 11.3 | 0.00 | 0.00 | 0.00 | 64 | 1017.5 |
| 20260510143246 | 18 | 286 | 8.0 | 9.7 | 0.00 | 0.00 | 0.00 | 63 | 1016.8 |
| 20260510142743 | 18 | 296 | 6.4 | 8.0 | 0.00 | 0.00 | 0.00 | 65 | 1017.0 |
| 20260510142239 | 18 | 284 | 4.8 | 4.8 | 0.00 | 0.00 | 0.00 | 66 | 1016.9 |
| 20260510141737 | 18 | 327 | 4.8 | 4.8 | 0.00 | 0.00 | 0.00 | 67 | 1017.0 |
| 20260510141235 | 18 | 294 | 3.2 | 3.2 | 0.00 | 0.00 | 0.00 | 66 | 1017.0 |
| 20260510140731 | 17 | 300 | 4.8 | 4.8 | 0.00 | 0.00 | 0.00 | 67 | 1017.0 |
| 20260510140226 | 17 | 301 | 1.6 | 3.2 | 0.00 | 0.00 | 0.00 | 68 | 1016.9 |
| 20260510135720 | 17 | 314 | 6.4 | 8.0 | 0.00 | 0.00 | 0.00 | 68 | 1017.1 |
| 20260510135216 | 17 | 290 | 3.2 | 3.2 | 0.00 | 0.00 | 0.00 | 68 | 1017.0 |
| 20260510134714 | 17 | 292 | 4.8 | 4.8 | 0.00 | 0.00 | 0.00 | 70 | 1017.2 |
| 20260510134211 | 17 | 307 | 3.2 | 3.2 | 0.00 | 0.00 | 0.00 | 71 | 1017.0 |
| 20260510133706 | 16 | 297 | 3.2 | 3.2 | 0.00 | 0.00 | 0.00 | 71 | 1016.9 |
| 20260510133202 | 16 | 310 | 8.0 | 9.7 | 0.00 | 0.00 | 0.00 | 71 | 1017.4 |
| 20260510132659 | 16 | 299 | 3.2 | 4.8 | 0.00 | 0.00 | 0.00 | 72 | 1017.0 |
| 20260510132156 | 16 | 297 | 3.2 | 3.2 | 0.00 | 0.00 | 0.00 | 72 | 1017.0 |
| 20260510131654 | 15 | 278 | 4.8 | 4.8 | 0.00 | 0.00 | 0.00 | 73 | 1016.8 |
| 20260510131151 | 15 | 281 | 6.4 | 8.0 | 0.00 | 0.00 | 0.00 | 74 | 1017.0 |
| 20260510130647 | 15 | 317 | 1.6 | 3.2 | 0.00 | 0.00 | 0.00 | 74 | 1017.0 |
| 20260510130144 | 15 | 302 | 3.2 | 3.2 | 0.00 | 0.00 | 0.00 | 75 | 1017.0 |
| 20260510125641 | 15 | 308 | 4.8 | 4.8 | 0.00 | 0.00 | 0.00 | 75 | 1017.0 |
| 20260510125137 | 15 | 298 | 8.0 | 8.0 | 0.00 | 0.00 | 0.00 | 76 | 1017.2 |
| 20260510124634 | 15 | 315 | 1.6 | 3.2 | 0.00 | 0.00 | 0.00 | 77 | 1017.0 |
| 20260510124131 | 15 | 288 | 4.8 | 4.8 | 0.00 | 0.00 | 0.00 | 77 | 1017.1 |
| 20260510123626 | 15 | 294 | 4.8 | 4.8 | 0.00 | 0.00 | 0.00 | 79 | 1017.0 |
| 20260510123123 | 14 | 310 | 4.8 | 4.8 | 0.00 | 0.00 | 0.00 | 79 | 1017.2 |
| 20260510122619 | 14 | 301 | 1.6 | 3.2 | 0.00 | 0.00 | 0.00 | 80 | 1017.4 |
| 20260510122114 | 13 | 305 | 3.2 | 3.2 | 0.00 | 0.00 | 0.00 | 80 | 1017.0 |
| 20260510121612 | 13 | 306 | 3.2 | 3.2 | 0.00 | 0.00 | 0.00 | 81 | 1017.0 |
| 20260510121109 | 13 | 305 | 1.6 | 1.6 | 0.00 | 0.00 | 0.00 | 82 | 1016.9 |
| 20260510120607 | 13 | 300 | 1.6 | 3.2 | 0.00 | 0.00 | 0.00 | 82 | 1016.6 |
| 20260510115559 | 13 | 299 | 1.6 | 1.6 | 0.00 | 0.00 | 0.00 | 83 | 1016.6 |
| 20260510115056 | 12 | 302 | 1.6 | 1.6 | 0.00 | 0.00 | 0.00 | 84 | 1016.8 |
| 20260510114551 | 12 | 300 | 0.0 | 0.0 | 0.00 | 0.00 | 0.00 | 85 | 1016.5 |
| 20260510114048 | 12 | 301 | 0.0 | 1.6 | 0.00 | 0.00 | 0.00 | 86 | 1016.4 |
| 20260510113543 | 12 | 302 | 1.6 | 1.6 | 0.00 | 0.00 | 0.00 | 87 | 1016.2 |
| 20260510113041 | 12 | 302 | 0.0 | 1.6 | 0.00 | 0.00 | 0.00 | 87 | 1016.1 |
| 20260510112537 | 12 | 306 | 0.0 | 1.6 | 0.00 | 0.00 | 0.00 | 88 | 1016.1 |
| 20260510112034 | 11 | 304 | 0.0 | 0.0 | 0.00 | 0.00 | 0.00 | 89 | 1016.0 |
| 20260510111531 | 11 | 306 | 0.0 | 0.0 | 0.00 | 0.00 | 0.00 | 90 | 1016.1 |
| 20260510111027 | 11 | 306 | 0.0 | 0.0 | 0.00 | 0.00 | 0.00 | 91 | 1016.0 |
| 20260510110523 | 11 | 306 | 0.0 | 0.0 | 0.00 | 0.00 | 0.00 | 91 | 1016.0 |
| 20260510110020 | 11 | 306 | 0.0 | 0.0 | 0.00 | 0.00 | 0.00 | 92 | 1016.1 |
| 20260510105515 | 11 | 306 | 0.0 | 0.0 | 0.00 | 0.00 | 0.00 | 92 | 1016.1 |
| 20260510105010 | 11 | 306 | 0.0 | 0.0 | 0.00 | 0.00 | 0.00 | 92 | 1015.9 |
| 20260510104507 | 11 | 306 | 1.6 | 1.6 | 0.00 | 0.00 | 0.00 | 92 | 1015.9 |
| 20260510104003 | 11 | 306 | 0.0 | 1.6 | 0.00 | 0.00 | 0.00 | 93 | 1015.7 |
| 20260510103500 | 11 | 306 | 1.6 | 1.6 | 0.00 | 0.00 | 0.00 | 93 | 1015.6 |
| 20260510102956 | 11 | 307 | 1.6 | 1.6 | 0.00 | 0.00 | 0.00 | 93 | 1015.6 |
| 20260510102452 | 11 | 307 | 0.0 | 0.0 | 0.00 | 0.00 | 0.00 | 93 | 1015.7 |
| 20260510101948 | 11 | 307 | 0.0 | 0.0 | 0.00 | 0.00 | 0.00 | 93 | 1015.5 |
| 20260510101446 | 11 | 307 | 0.0 | 1.6 | 0.00 | 0.00 | 0.00 | 93 | 1015.3 |
| 20260510100945 | 11 | 307 | 1.6 | 1.6 | 0.00 | 0.00 | 0.00 | 93 | 1015.3 |
| 20260510100440 | 11 | 307 | 0.0 | 0.0 | 0.00 | 0.00 | 0.00 | 93 | 1015.2 |
| 20260510095937 | 11 | 307 | 0.0 | 0.0 | 0.00 | 0.00 | 0.00 | 93 | 1015.0 |
| 20260510095432 | 11 | 307 | 1.6 | 1.6 | 0.00 | 0.00 | 0.00 | 93 | 1015.2 |
| 20260510094932 | 11 | 308 | 1.6 | 1.6 | 0.00 | 0.00 | 0.00 | 93 | 1015.2 |
| 20260510094426 | 11 | 306 | 1.6 | 3.2 | 0.00 | 0.00 | 0.00 | 93 | 1015.1 |
| 20260510093923 | 11 | 307 | 1.6 | 1.6 | 0.00 | 0.00 | 0.00 | 93 | 1015.0 |
| 20260510093418 | 11 | 306 | 0.0 | 0.0 | 0.00 | 0.00 | 0.00 | 93 | 1014.9 |
| 20260510092915 | 11 | 306 | 1.6 | 1.6 | 0.00 | 0.00 | 0.00 | 93 | 1014.9 |
| 20260510092413 | 11 | 295 | 3.2 | 3.2 | 0.00 | 0.00 | 0.00 | 93 | 1015.2 |
| 20260510091913 | 11 | 305 | 0.0 | 1.6 | 0.00 | 0.00 | 0.00 | 93 | 1014.8 |
| 20260510091410 | 10 | 298 | 0.0 | 0.0 | 0.00 | 0.00 | 0.00 | 94 | 1014.9 |
| 20260510090906 | 10 | 299 | 0.0 | 0.0 | 0.00 | 0.00 | 0.00 | 94 | 1014.8 |
| 20260510090403 | 10 | 297 | 0.0 | 0.0 | 0.00 | 0.00 | 0.00 | 94 | 1014.6 |
| 20260510085859 | 10 | 296 | 0.0 | 0.0 | 0.00 | 0.00 | 0.00 | 94 | 1014.6 |
| 20260510085354 | 10 | 295 | 0.0 | 0.0 | 0.00 | 0.00 | 0.00 | 94 | 1014.5 |
| 20260510084849 | 10 | 294 | 0.0 | 0.0 | 0.00 | 0.00 | 0.00 | 95 | 1014.5 |
| 20260510084348 | 10 | 289 | 0.0 | 0.0 | 0.00 | 0.00 | 0.00 | 97 | 1014.5 |
| 20260510083844 | 10 | 290 | 0.0 | 0.0 | 0.00 | 0.00 | 0.00 | 97 | 1014.3 |
| 20260510083340 | 10 | 290 | 0.0 | 0.0 | 0.00 | 0.00 | 0.00 | 98 | 1014.3 |
| 20260510082836 | 9 | 301 | 0.0 | 0.0 | 0.00 | 0.00 | 0.00 | 99 | 1014.5 |
| 20260510082333 | 8 | 32 | 0.0 | 0.0 | 0.00 | 0.00 | 0.00 | 98 | 1014.2 |
| 20260510081832 | 8 | 32 | 0.0 | 0.0 | 0.00 | 0.00 | 0.00 | 98 | 1014.3 |
| 20260510081328 | 8 | 32 | 0.0 | 0.0 | 0.00 | 0.00 | 0.00 | 98 | 1014.5 |
| 20260510080825 | 8 | 32 | 0.0 | 0.0 | 0.00 | 0.00 | 0.00 | 98 | 1013.9 |
| 20260510080319 | 8 | 32 | 0.0 | 0.0 | 0.00 | 0.00 | 0.00 | 98 | 1014.1 |
| 20260510075817 | 8 | 35 | 0.0 | 0.0 | 0.00 | 0.00 | 0.00 | 98 | 1014.2 |
| 20260510075314 | 8 | 35 | 0.0 | 0.0 | 0.00 | 0.00 | 0.00 | 98 | 1014.3 |
| 20260510074811 | 9 | 35 | 0.0 | 0.0 | 0.00 | 0.00 | 0.00 | 98 | 1014.2 |
| 20260510074308 | 9 | 35 | 0.0 | 0.0 | 0.00 | 0.00 | 0.00 | 98 | 1014.5 |
| 20260510073803 | 9 | 36 | 0.0 | 0.0 | 0.00 | 0.00 | 0.00 | 98 | 1014.2 |
| 20260510073300 | 9 | 56 | 0.0 | 0.0 | 0.00 | 0.00 | 0.00 | 98 | 1014.3 |
| 20260510072755 | 9 | 72 | 0.0 | 0.0 | 0.00 | 0.00 | 0.00 | 98 | 1014.3 |
| 20260510072252 | 9 | 118 | 0.0 | 0.0 | 0.00 | 0.00 | 0.00 | 98 | 1014.0 |
| 20260510071749 | 8 | 88 | 0.0 | 0.0 | 0.00 | 0.00 | 0.00 | 98 | 1014.2 |
| 20260510071246 | 8 | 78 | 0.0 | 0.0 | 0.00 | 0.00 | 0.00 | 98 | 1014.2 |
| 20260510070744 | 8 | 57 | 0.0 | 0.0 | 0.00 | 0.00 | 0.00 | 98 | 1014.3 |
| 20260510070241 | 9 | 56 | 0.0 | 0.0 | 0.00 | 0.00 | 0.00 | 98 | 1014.2 |
| 20260510065735 | 9 | 59 | 1.6 | 1.6 | 0.00 | 0.00 | 0.00 | 97 | 1014.1 |
| 20260510065232 | 9 | 76 | 0.0 | 1.6 | 0.00 | 0.00 | 0.00 | 97 | 1014.0 |
| 20260510064728 | 9 | 85 | 1.6 | 3.2 | 0.00 | 0.00 | 0.00 | 97 | 1014.3 |
| 20260510064226 | 9 | 109 | 3.2 | 3.2 | 0.00 | 0.00 | 0.00 | 97 | 1013.9 |
| 20260510063722 | 9 | 49 | 0.0 | 0.0 | 0.00 | 0.00 | 0.00 | 97 | 1014.1 |
| 20260510063219 | 9 | 27 | 0.0 | 0.0 | 0.00 | 0.00 | 0.00 | 96 | 1014.1 |
| 20260510062716 | 10 | 25 | 0.0 | 0.0 | 0.00 | 0.00 | 0.00 | 96 | 1013.9 |
| 20260510062212 | 10 | 21 | 0.0 | 0.0 | 0.00 | 0.00 | 0.00 | 96 | 1013.9 |
| 20260510061707 | 10 | 22 | 0.0 | 0.0 | 0.00 | 0.00 | 0.00 | 96 | 1014.1 |
| 20260510061204 | 10 | 23 | 0.0 | 0.0 | 0.00 | 0.00 | 0.00 | 96 | 1013.9 |
| 20260510060701 | 10 | 25 | 0.0 | 0.0 | 0.00 | 0.00 | 0.00 | 96 | 1014.0 |
| 20260510060157 | 10 | 23 | 0.0 | 0.0 | 0.00 | 0.00 | 0.00 | 96 | 1014.1 |
| 20260510055653 | 10 | 23 | 0.0 | 0.0 | 0.00 | 0.00 | 0.00 | 96 | 1014.1 |
| 20260510055152 | 10 | 23 | 0.0 | 0.0 | 0.00 | 0.00 | 0.00 | 95 | 1014.1 |
| 20260510054647 | 10 | 22 | 0.0 | 0.0 | 0.00 | 0.00 | 0.00 | 96 | 1014.1 |
| 20260510054143 | 9 | 22 | 0.0 | 0.0 | 0.00 | 0.00 | 0.00 | 95 | 1014.1 |
| 20260510053642 | 9 | 24 | 0.0 | 0.0 | 0.00 | 0.00 | 0.00 | 95 | 1014.2 |
| 20260510053139 | 10 | 24 | 0.0 | 0.0 | 0.00 | 0.00 | 0.00 | 95 | 1014.1 |
| 20260510052635 | 10 | 24 | 0.0 | 0.0 | 0.00 | 0.00 | 0.00 | 95 | 1014.1 |
| 20260510052131 | 10 | 24 | 0.0 | 0.0 | 0.00 | 0.00 | 0.00 | 95 | 1014.1 |
| 20260510051627 | 10 | 24 | 0.0 | 0.0 | 0.00 | 0.00 | 0.00 | 94 | 1014.0 |
| 20260510051124 | 10 | 24 | 0.0 | 0.0 | 0.00 | 0.00 | 0.00 | 94 | 1014.1 |
| 20260510050621 | 10 | 24 | 0.0 | 0.0 | 0.00 | 0.00 | 0.00 | 94 | 1014.5 |
| 20260510050118 | 10 | 24 | 0.0 | 0.0 | 0.00 | 0.00 | 0.00 | 94 | 1014.2 |
| 20260510045615 | 10 | 24 | 0.0 | 0.0 | 0.00 | 0.00 | 0.00 | 93 | 1014.3 |
| 20260510045111 | 10 | 24 | 0.0 | 0.0 | 0.00 | 0.00 | 0.00 | 93 | 1014.3 |
| 20260510044608 | 10 | 25 | 0.0 | 0.0 | 0.00 | 0.00 | 0.00 | 92 | 1014.0 |
| 20260510044105 | 10 | 321 | 0.0 | 0.0 | 0.00 | 0.00 | 0.00 | 91 | 1014.1 |
| 20260510043600 | 11 | 312 | 0.0 | 0.0 | 0.00 | 0.00 | 0.00 | 90 | 1013.9 |
| 20260510043057 | 11 | 310 | 1.6 | 1.6 | 0.00 | 0.00 | 0.00 | 89 | 1014.1 |
| 20260510042555 | 11 | 343 | 0.0 | 0.0 | 0.00 | 0.00 | 0.00 | 91 | 1013.9 |
| 20260510042051 | 11 | 344 | 0.0 | 0.0 | 0.00 | 0.00 | 0.00 | 91 | 1014.2 |
| 20260510041548 | 10 | 6 | 0.0 | 0.0 | 0.00 | 0.00 | 0.00 | 92 | 1014.1 |
| 20260510041046 | 10 | 6 | 0.0 | 0.0 | 0.00 | 0.00 | 0.00 | 91 | 1014.0 |
| 20260510040542 | 10 | 6 | 0.0 | 0.0 | 0.00 | 0.00 | 0.00 | 91 | 1014.1 |
| 20260510040038 | 10 | 6 | 0.0 | 0.0 | 0.00 | 0.05 | 0.05 | 91 | 1014.1 |
| 20260510035535 | 10 | 6 | 0.0 | 0.0 | 0.00 | 0.05 | 0.05 | 91 | 1013.9 |
| 20260510035034 | 10 | 6 | 0.0 | 0.0 | 0.00 | 0.05 | 0.05 | 90 | 1014.0 |
| 20260510034533 | 10 | 6 | 0.0 | 0.0 | 0.00 | 0.05 | 0.05 | 89 | 1014.2 |
| 20260510034029 | 10 | 7 | 0.0 | 0.0 | 0.00 | 0.05 | 0.05 | 89 | 1014.0 |
| 20260510033525 | 10 | 276 | 0.0 | 0.0 | 0.00 | 0.05 | 0.05 | 89 | 1014.0 |
| 20260510033023 | 10 | 274 | 0.0 | 0.0 | 0.00 | 0.05 | 0.05 | 88 | 1013.9 |
| 20260510032519 | 10 | 274 | 0.0 | 0.0 | 0.00 | 0.05 | 0.05 | 88 | 1014.1 |
| 20260510032015 | 11 | 274 | 0.0 | 0.0 | 0.00 | 0.05 | 0.05 | 87 | 1013.9 |
| 20260510031510 | 11 | 274 | 0.0 | 0.0 | 0.00 | 0.05 | 0.05 | 87 | 1014.1 |
| 20260510031006 | 11 | 274 | 0.0 | 0.0 | 0.00 | 0.05 | 0.05 | 86 | 1014.0 |
| 20260510030502 | 11 | 274 | 0.0 | 0.0 | 0.00 | 0.05 | 0.05 | 85 | 1014.1 |
| 20260510025959 | 11 | 274 | 0.0 | 0.0 | 0.00 | 0.05 | 0.05 | 84 | 1014.1 |
| 20260510025456 | 11 | 274 | 0.0 | 0.0 | 0.00 | 0.05 | 0.05 | 84 | 1014.2 |
| 20260510024954 | 11 | 273 | 0.0 | 0.0 | 0.00 | 0.05 | 0.05 | 84 | 1014.2 |
| 20260510024450 | 12 | 267 | 0.0 | 0.0 | 0.00 | 0.05 | 0.05 | 83 | 1013.9 |
| 20260510023946 | 12 | 285 | 0.0 | 0.0 | 0.00 | 0.05 | 0.05 | 82 | 1014.5 |
| 20260510023442 | 12 | 303 | 0.0 | 0.0 | 0.00 | 0.05 | 0.05 | 81 | 1014.2 |
| 20260510022939 | 12 | 303 | 0.0 | 0.0 | 0.00 | 0.05 | 0.05 | 80 | 1014.0 |
| 20260510022438 | 13 | 303 | 0.0 | 0.0 | 0.00 | 0.05 | 0.05 | 79 | 1013.9 |
| 20260510021938 | 13 | 303 | 0.0 | 0.0 | 0.00 | 0.05 | 0.05 | 78 | 1013.5 |
| 20260510021436 | 13 | 303 | 0.0 | 0.0 | 0.00 | 0.05 | 0.05 | 77 | 1013.6 |
| 20260510020933 | 13 | 303 | 0.0 | 0.0 | 0.00 | 0.05 | 0.05 | 77 | 1013.7 |
| 20260510020433 | 13 | 302 | 0.0 | 0.0 | 0.00 | 0.05 | 0.05 | 76 | 1013.5 |
| 20260510015929 | 13 | 302 | 0.0 | 0.0 | 0.00 | 0.05 | 0.05 | 76 | 1013.4 |
| 20260510015425 | 13 | 303 | 1.6 | 1.6 | 0.00 | 0.05 | 0.05 | 76 | 1013.2 |
| 20260510014920 | 13 | 303 | 0.0 | 0.0 | 0.00 | 0.05 | 0.05 | 75 | 1013.3 |
| 20260510014418 | 13 | 303 | 1.6 | 1.6 | 0.00 | 0.05 | 0.05 | 75 | 1013.2 |
| 20260510013914 | 13 | 303 | 1.6 | 1.6 | 0.00 | 0.05 | 0.05 | 75 | 1012.9 |
| 20260510013409 | 13 | 303 | 1.6 | 3.2 | 0.00 | 0.05 | 0.05 | 74 | 1012.7 |
| 20260510012904 | 13 | 303 | 0.0 | 0.0 | 0.00 | 0.05 | 0.05 | 74 | 1012.6 |
| 20260510012400 | 13 | 304 | 1.6 | 1.6 | 0.00 | 0.05 | 0.05 | 74 | 1012.7 |
| 20260510011854 | 13 | 304 | 1.6 | 1.6 | 0.00 | 0.05 | 0.05 | 73 | 1012.8 |
| 20260510011350 | 14 | 304 | 1.6 | 1.6 | 0.00 | 0.05 | 0.05 | 73 | 1012.5 |
| 20260510010846 | 14 | 303 | 1.6 | 1.6 | 0.00 | 0.05 | 0.05 | 72 | 1012.6 |
| 20260510010344 | 14 | 305 | 1.6 | 3.2 | 0.00 | 0.05 | 0.05 | 72 | 1012.7 |
| 20260510005840 | 14 | 305 | 1.6 | 1.6 | 0.00 | 0.05 | 0.05 | 73 | 1012.5 |
| 20260510005337 | 14 | 309 | 3.2 | 3.2 | 0.00 | 0.05 | 0.05 | 72 | 1012.5 |
| 20260510004834 | 14 | 310 | 1.6 | 1.6 | 0.00 | 0.05 | 0.05 | 71 | 1012.4 |
| 20260510004332 | 15 | 311 | 1.6 | 1.6 | 0.00 | 0.05 | 0.05 | 70 | 1012.4 |
| 20260510003829 | 15 | 311 | 1.6 | 1.6 | 0.00 | 0.05 | 0.05 | 70 | 1012.5 |
| 20260510003326 | 15 | 309 | 1.6 | 1.6 | 0.00 | 0.05 | 0.05 | 69 | 1012.5 |
| 20260510002825 | 15 | 308 | 1.6 | 3.2 | 0.00 | 0.05 | 0.05 | 68 | 1012.2 |
| 20260510002322 | 15 | 306 | 1.6 | 3.2 | 0.00 | 0.05 | 0.05 | 67 | 1012.3 |
| 20260510001818 | 15 | 304 | 1.6 | 1.6 | 0.00 | 0.05 | 0.05 | 67 | 1012.3 |
| 20260510001317 | 15 | 315 | 3.2 | 3.2 | 0.00 | 0.05 | 0.05 | 66 | 1012.5 |
| 20260510000812 | 16 | 314 | 1.6 | 1.6 | 0.00 | 0.05 | 0.05 | 65 | 1012.5 |
| 20260510000311 | 16 | 310 | 1.6 | 1.6 | 0.00 | 0.05 | 0.05 | 65 | 1012.1 |
| 20260509235807 | 16 | 322 | 1.6 | 3.2 | 0.00 | 0.05 | 0.05 | 64 | 1011.9 |
| 20260509235306 | 16 | 300 | 3.2 | 3.2 | 0.00 | 0.05 | 0.05 | 63 | 1012.0 |
| 20260509234759 | 16 | 300 | 3.2 | 3.2 | 0.00 | 0.05 | 0.05 | 63 | 1012.0 |
| 20260509234256 | 16 | 294 | 4.8 | 8.0 | 0.00 | 0.05 | 0.05 | 62 | 1011.9 |
| 20260509233755 | 16 | 298 | 4.8 | 4.8 | 0.00 | 0.05 | 0.05 | 62 | 1011.9 |
| 20260509233252 | 16 | 329 | 4.8 | 8.0 | 0.00 | 0.05 | 0.05 | 62 | 1011.9 |
| 20260509232748 | 16 | 322 | 0.0 | 1.6 | 0.00 | 0.05 | 0.05 | 62 | 1011.8 |
| 20260509232245 | 16 | 314 | 1.6 | 1.6 | 0.00 | 0.05 | 0.05 | 60 | 1011.9 |
| 20260509231741 | 17 | 297 | 4.8 | 4.8 | 0.00 | 0.05 | 0.05 | 61 | 1011.7 |
| 20260509231238 | 17 | 316 | 1.6 | 1.6 | 0.00 | 0.05 | 0.05 | 59 | 1011.7 |
| 20260509230736 | 17 | 296 | 6.4 | 8.0 | 0.00 | 0.05 | 0.05 | 59 | 1011.6 |
| 20260509230233 | 17 | 257 | 4.8 | 4.8 | 0.00 | 0.05 | 0.05 | 58 | 1011.6 |
| 20260509225728 | 17 | 329 | 1.6 | 3.2 | 0.00 | 0.05 | 0.05 | 58 | 1011.6 |
| 20260509225224 | 17 | 304 | 1.6 | 3.2 | 0.00 | 0.05 | 0.05 | 58 | 1011.9 |
| 20260509224720 | 17 | 273 | 4.8 | 4.8 | 0.00 | 0.05 | 0.05 | 56 | 1011.8 |
| 20260509224217 | 17 | 326 | 3.2 | 3.2 | 0.00 | 0.05 | 0.05 | 57 | 1011.7 |
| 20260509223714 | 17 | 321 | 1.6 | 1.6 | 0.00 | 0.05 | 0.05 | 58 | 1011.7 |
| 20260509223211 | 17 | 292 | 3.2 | 3.2 | 0.00 | 0.05 | 0.05 | 55 | 1011.9 |
| 20260509222708 | 17 | 335 | 3.2 | 3.2 | 0.00 | 0.05 | 0.05 | 56 | 1011.9 |
| 20260509222203 | 17 | 317 | 3.2 | 3.2 | 0.00 | 0.05 | 0.05 | 55 | 1011.9 |
| 20260509221659 | 17 | 306 | 4.8 | 4.8 | 0.00 | 0.05 | 0.05 | 56 | 1012.0 |
| 20260509221155 | 17 | 297 | 3.2 | 3.2 | 0.00 | 0.05 | 0.05 | 56 | 1012.0 |
| 20260509220652 | 17 | 288 | 6.4 | 8.0 | 0.00 | 0.05 | 0.05 | 55 | 1012.1 |
| 20260509220148 | 17 | 329 | 3.2 | 3.2 | 0.00 | 0.05 | 0.05 | 55 | 1012.0 |
| 20260509215644 | 17 | 265 | 3.2 | 3.2 | 0.00 | 0.05 | 0.05 | 54 | 1011.9 |
| 20260509215141 | 18 | 312 | 3.2 | 3.2 | 0.00 | 0.05 | 0.05 | 54 | 1011.9 |
| 20260509214638 | 18 | 281 | 3.2 | 3.2 | 0.00 | 0.05 | 0.05 | 52 | 1012.0 |
| 20260509214134 | 17 | 297 | 3.2 | 3.2 | 0.00 | 0.05 | 0.05 | 53 | 1012.1 |
| 20260509213631 | 17 | 305 | 4.8 | 4.8 | 0.00 | 0.05 | 0.05 | 54 | 1012.0 |
| 20260509213127 | 17 | 274 | 4.8 | 4.8 | 0.00 | 0.05 | 0.05 | 56 | 1011.7 |
| 20260509212625 | 17 | 2 | 4.8 | 9.7 | 0.00 | 0.05 | 0.05 | 54 | 1011.8 |
| 20260509212122 | 17 | 291 | 3.2 | 3.2 | 0.00 | 0.05 | 0.05 | 53 | 1011.9 |
| 20260509211617 | 17 | 302 | 4.8 | 4.8 | 0.00 | 0.05 | 0.05 | 54 | 1011.8 |
| 20260509211114 | 17 | 318 | 8.0 | 11.3 | 0.00 | 0.05 | 0.05 | 54 | 1011.8 |
| 20260509210611 | 17 | 277 | 3.2 | 3.2 | 0.00 | 0.05 | 0.05 | 54 | 1011.7 |
| 20260509210108 | 17 | 258 | 4.8 | 4.8 | 0.00 | 0.05 | 0.05 | 53 | 1011.7 |
| 20260509205602 | 17 | 265 | 4.8 | 4.8 | 0.00 | 0.05 | 0.05 | 51 | 1011.4 |
| 20260509205057 | 17 | 314 | 1.6 | 1.6 | 0.00 | 0.05 | 0.05 | 54 | 1011.8 |
| 20260509204554 | 17 | 308 | 3.2 | 3.2 | 0.00 | 0.05 | 0.05 | 52 | 1011.6 |
| 20260509204051 | 17 | 322 | 0.0 | 1.6 | 0.00 | 0.05 | 0.05 | 52 | 1011.4 |
| 20260509203547 | 17 | 295 | 3.2 | 4.8 | 0.00 | 0.05 | 0.05 | 51 | 1011.7 |
| 20260509203045 | 17 | 336 | 3.2 | 3.2 | 0.00 | 0.05 | 0.05 | 53 | 1011.4 |
| 20260509202544 | 17 | 327 | 4.8 | 4.8 | 0.00 | 0.05 | 0.05 | 52 | 1011.3 |
| 20260509202040 | 17 | 320 | 3.2 | 3.2 | 0.00 | 0.05 | 0.05 | 51 | 1011.6 |
| 20260509201536 | 17 | 317 | 3.2 | 3.2 | 0.00 | 0.05 | 0.05 | 49 | 1011.4 |
| 20260509201034 | 17 | 320 | 3.2 | 3.2 | 0.00 | 0.05 | 0.05 | 52 | 1011.2 |
| 20260509200533 | 17 | 295 | 4.8 | 8.0 | 0.00 | 0.05 | 0.05 | 49 | 1011.1 |
| 20260509200030 | 17 | 319 | 3.2 | 3.2 | 0.00 | 0.05 | 0.05 | 52 | 1011.1 |
| 20260509195526 | 17 | 315 | 4.8 | 4.8 | 0.00 | 0.05 | 0.05 | 52 | 1011.3 |
| 20260509195025 | 17 | 295 | 6.4 | 8.0 | 0.00 | 0.05 | 0.05 | 51 | 1011.1 |
| 20260509194520 | 17 | 311 | 12.9 | 14.5 | 0.00 | 0.05 | 0.05 | 49 | 1011.3 |
| 20260509194019 | 17 | 336 | 4.8 | 8.0 | 0.00 | 0.05 | 0.05 | 49 | 1011.2 |
| 20260509193518 | 17 | 288 | 4.8 | 8.0 | 0.00 | 0.05 | 0.05 | 49 | 1011.1 |
| 20260509193016 | 18 | 261 | 8.0 | 9.7 | 0.00 | 0.05 | 0.05 | 48 | 1011.1 |
| 20260509192512 | 18 | 258 | 3.2 | 4.8 | 0.00 | 0.05 | 0.05 | 49 | 1011.1 |
| 20260509192007 | 17 | 273 | 4.8 | 4.8 | 0.00 | 0.05 | 0.05 | 47 | 1010.9 |
| 20260509191502 | 18 | 302 | 8.0 | 9.7 | 0.00 | 0.05 | 0.05 | 47 | 1011.0 |
| 20260509190958 | 18 | 306 | 6.4 | 8.0 | 0.00 | 0.05 | 0.05 | 49 | 1011.2 |